Weather History for Unalakleet, AK

Change the Weather History Date:

Tuesday, February 5, 2013

  Actual Average Record
Temperature  
Mean Temperature 16 °F -  
Max Temperature 19 °F 13 °F 42 °F (2003)
Min Temperature 12 °F 0 °F -45 °F (1999)
Degree Days  
Heating Degree Days 50    
Moisture  
Dew Point 13 °F    
Average Humidity 79    
Maximum Humidity 92    
Minimum Humidity 74    
Precipitation  
Precipitation 0.00 in - - ()
Sea Level Pressure  
Sea Level Pressure 29.57 in    
Wind  
Wind Speed 20 mph (East)    
Max Wind Speed 25 mph    
Max Gust Speed 26 mph    
Visibility 7 miles    
Events      
Averages and records for this station are not official NWS values.
T = Trace of Precipitation, MM = Missing Value Source: NWS Daily Summary

Daily Weather History Graph

Daily Weather History Graph

Search for Another Location

Airport:

Trip Planner

Search our weather history database for the weather conditions in past years. The results will help you decide how hot, cold, wet, or windy it might be!

Date:

Astronomy

Feb. 05, 2013 Rise Set
Actual Time 10:07 AM AKST 5:47 PM AKST
Civil Twilight 9:13 AM AKST 6:42 PM AKST
Nautical Twilight 8:16 AM AKST 7:39 PM AKST
Astronomical Twilight 7:21 AM AKST 8:34 PM AKST
Moon 6:54 AM AKST (2/5) 12:23 PM AKST (2/5)
Length of Visible Light 9h 28m
Length of Day
7h 40m
Waning Crescent, 25% of the Moon is Illuminated
Feb 5
Waning Crescent
Feb 9
New
Feb 17
First Quarter
Feb 25
Full
Mar 4
Last Quarter

Hourly Weather History & Observations

Time (AKST) Temp. Windchill Dew Point Humidity Pressure Visibility Wind Dir Wind Speed Gust Speed Precip Events Conditions
12:16 AM 19.4 °F 2.8 °F 15.8 °F 86% 29.56 in 10.0 mi ENE 21.9 mph 26.5 mph N/A   Overcast
12:36 AM 19.4 °F 1.8 °F 14.0 °F 80% 29.55 in 10.0 mi East 25.3 mph - N/A   Overcast
12:56 AM 19.4 °F 2.1 °F 14.0 °F 80% 29.56 in 10.0 mi ENE 24.2 mph - N/A   Overcast
1:16 AM 19.4 °F 2.1 °F 14.0 °F 80% 29.55 in 10.0 mi East 24.2 mph - N/A   Mostly Cloudy
1:36 AM 19.4 °F 2.1 °F 15.8 °F 86% 29.55 in 10.0 mi East 24.2 mph - N/A   Overcast
1:56 AM 19.4 °F 1.8 °F 14.0 °F 80% 29.55 in 10.0 mi East 25.3 mph - N/A   Overcast
2:16 AM 19.4 °F 1.8 °F 14.0 °F 80% 29.55 in 10.0 mi East 25.3 mph - N/A   Overcast
2:36 AM 19.4 °F 2.5 °F 12.2 °F 74% 29.55 in 10.0 mi East 23.0 mph - N/A   Overcast
2:56 AM 19.4 °F 3.2 °F 12.2 °F 74% 29.54 in 10.0 mi ENE 20.7 mph 25.3 mph N/A   Mostly Cloudy
3:16 AM 19.4 °F 2.8 °F 12.2 °F 74% 29.55 in 10.0 mi ENE 21.9 mph - N/A   Overcast
3:36 AM 19.4 °F 5.0 °F 14.0 °F 80% 29.55 in 10.0 mi East 16.1 mph - N/A   Overcast
3:56 AM 19.4 °F 3.6 °F 12.2 °F 74% 29.55 in 10.0 mi East 19.6 mph 24.2 mph N/A   Overcast
4:16 AM 19.4 °F 4.1 °F 14.0 °F 80% 29.55 in 10.0 mi East 18.4 mph 24.2 mph N/A   Overcast
4:36 AM 19.4 °F 4.1 °F 12.2 °F 74% 29.56 in 10.0 mi East 18.4 mph - N/A   Overcast
4:56 AM 19.4 °F 3.6 °F 12.2 °F 74% 29.55 in 10.0 mi East 19.6 mph - N/A   Overcast
5:16 AM 19.4 °F 4.1 °F 12.2 °F 74% 29.55 in 10.0 mi East 18.4 mph - N/A   Overcast
5:36 AM 19.4 °F 3.2 °F 14.0 °F 80% 29.55 in 10.0 mi East 20.7 mph - N/A   Overcast
5:56 AM 19.4 °F 2.8 °F 12.2 °F 74% 29.55 in 10.0 mi East 21.9 mph - N/A   Overcast
6:16 AM 19.4 °F 4.1 °F 14.0 °F 80% 29.55 in 10.0 mi East 18.4 mph - N/A   Overcast
6:36 AM 19.4 °F 3.6 °F 14.0 °F 80% 29.55 in 10.0 mi East 19.6 mph - N/A   Overcast
6:56 AM 19.4 °F 3.2 °F 14.0 °F 80% 29.55 in 10.0 mi East 20.7 mph - N/A   Overcast
7:16 AM 19.4 °F 3.2 °F 12.2 °F 74% 29.55 in 10.0 mi East 20.7 mph 25.3 mph N/A   Overcast
7:36 AM 19.4 °F 4.5 °F 12.2 °F 74% 29.55 in 10.0 mi East 17.3 mph - N/A   Overcast
7:56 AM 17.6 °F 0.1 °F 12.2 °F 79% 29.55 in 10.0 mi ESE 23.0 mph - N/A   Overcast
8:16 AM 17.6 °F 0.5 °F 12.2 °F 79% 29.54 in 10.0 mi East 21.9 mph - N/A   Overcast
8:36 AM 17.6 °F 1.7 °F 12.2 °F 79% 29.55 in 10.0 mi East 18.4 mph - N/A   Overcast
8:56 AM 17.6 °F 1.3 °F 12.2 °F 79% 29.55 in 10.0 mi East 19.6 mph - N/A   Overcast
9:16 AM 17.6 °F 1.7 °F 12.2 °F 79% 29.55 in 10.0 mi East 18.4 mph - N/A   Overcast
9:36 AM 17.6 °F 2.7 °F 12.2 °F 79% 29.55 in 10.0 mi East 16.1 mph 20.7 mph N/A   Overcast
9:56 AM 17.6 °F 1.3 °F 12.2 °F 79% 29.55 in 8.0 mi East 19.6 mph - N/A   Overcast
10:16 AM 17.6 °F 3.2 °F 12.2 °F 79% 29.55 in 3.0 mi East 15.0 mph - N/A   Overcast
10:36 AM 17.6 °F 2.7 °F 12.2 °F 79% 29.55 in 3.0 mi East 16.1 mph - N/A   Overcast
10:56 AM 17.6 °F 0.5 °F 14.0 °F 86% 29.55 in 2.5 mi East 21.9 mph - N/A   Overcast
11:16 AM 17.6 °F 0.5 °F 14.0 °F 86% 29.55 in 3.0 mi East 21.9 mph - N/A   Overcast
11:36 AM 17.6 °F 0.1 °F 14.0 °F 86% 29.56 in 5.0 mi East 23.0 mph 26.5 mph N/A   Overcast
11:56 AM 17.6 °F 0.9 °F 12.2 °F 79% 29.56 in 8.0 mi East 20.7 mph - N/A   Overcast
12:16 PM 17.6 °F 1.3 °F 12.2 °F 79% 29.57 in 7.0 mi East 19.6 mph - N/A   Overcast
12:36 PM 17.6 °F 0.1 °F 14.0 °F 86% 29.57 in 2.0 mi East 23.0 mph - N/A   Overcast
12:56 PM 17.6 °F 1.3 °F 14.0 °F 86% 29.57 in 5.0 mi East 19.6 mph - N/A   Overcast
1:16 PM 17.6 °F 0.9 °F 14.0 °F 86% 29.57 in 10.0 mi East 20.7 mph - N/A   Overcast
1:36 PM 19.4 °F 2.8 °F 12.2 °F 74% 29.57 in 10.0 mi East 21.9 mph - N/A   Overcast
1:56 PM 19.4 °F 3.6 °F 12.2 °F 74% 29.57 in 10.0 mi East 19.6 mph - N/A   Overcast
2:16 PM 19.4 °F 4.1 °F 12.2 °F 74% 29.57 in 9.0 mi East 18.4 mph 24.2 mph N/A   Overcast
2:36 PM 19.4 °F 3.6 °F 12.2 °F 74% 29.57 in 2.5 mi East 19.6 mph 23.0 mph N/A   Overcast
2:56 PM 17.6 °F 2.7 °F 12.2 °F 79% 29.58 in 6.0 mi East 16.1 mph - N/A   Overcast
3:16 PM 17.6 °F 1.3 °F 12.2 °F 79% 29.57 in 8.0 mi East 19.6 mph - N/A   Overcast
3:36 PM 17.6 °F 0.9 °F 12.2 °F 79% 29.56 in 10.0 mi East 20.7 mph 25.3 mph N/A   Mostly Cloudy
3:56 PM 17.6 °F 0.9 °F 12.2 °F 79% 29.57 in 10.0 mi East 20.7 mph - N/A   Overcast
4:16 PM 19.4 °F 3.6 °F 12.2 °F 74% 29.57 in 3.0 mi East 19.6 mph - N/A   Overcast
4:36 PM 17.6 °F 1.7 °F 12.2 °F 79% 29.57 in 4.0 mi East 18.4 mph - N/A   Overcast
4:56 PM 17.6 °F 2.7 °F 12.2 °F 79% 29.57 in 2.5 mi East 16.1 mph - N/A   Overcast
5:16 PM 17.6 °F 4.3 °F 12.2 °F 79% 29.57 in 3.0 mi East 12.7 mph - N/A   Overcast
5:36 PM 17.6 °F 3.2 °F 12.2 °F 79% 29.57 in 5.0 mi ENE 15.0 mph - N/A   Overcast
5:56 PM 17.6 °F 4.3 °F 12.2 °F 79% 29.57 in 7.0 mi East 12.7 mph - N/A   Overcast
6:16 PM 17.6 °F 3.2 °F 12.2 °F 79% 29.57 in 2.5 mi ENE 15.0 mph - N/A   Overcast
6:36 PM 17.6 °F 3.7 °F 12.2 °F 79% 29.57 in 6.0 mi East 13.8 mph - N/A   Overcast
6:56 PM 17.6 °F 4.3 °F 12.2 °F 79% 29.58 in 3.0 mi ENE 12.7 mph - N/A   Overcast
7:16 PM 17.6 °F 4.3 °F 12.2 °F 79% 29.58 in 2.5 mi ENE 12.7 mph - N/A   Overcast
7:36 PM 17.6 °F 3.2 °F 12.2 °F 79% 29.58 in 2.5 mi ENE 15.0 mph - N/A   Overcast
7:56 PM 17.6 °F 5.0 °F 14.0 °F 86% 29.59 in 1.2 mi ENE 11.5 mph - N/A   Overcast
8:16 PM 17.6 °F 3.7 °F 12.2 °F 79% 29.59 in 1.5 mi ENE 13.8 mph - N/A   Overcast
8:36 PM 17.6 °F 2.2 °F 12.2 °F 79% 29.59 in 1.2 mi ENE 17.3 mph - N/A   Overcast
8:56 PM 17.6 °F 3.7 °F 12.2 °F 79% 29.59 in 1.2 mi ENE 13.8 mph - N/A   Overcast
9:16 PM 17.6 °F 4.3 °F 12.2 °F 79% 29.60 in 1.5 mi ENE 12.7 mph - N/A   Overcast
9:36 PM 17.6 °F 4.3 °F 12.2 °F 79% 29.60 in 2.5 mi East 12.7 mph - N/A   Overcast
9:56 PM 15.8 °F 2.7 °F 10.4 °F 79% 29.60 in 4.0 mi ENE 11.5 mph - N/A   Overcast
10:16 PM 15.8 °F 1.4 °F 10.4 °F 79% 29.60 in 7.0 mi East 13.8 mph - N/A   Overcast
10:36 PM 15.8 °F 8.6 °F 10.4 °F 79% 29.61 in 10.0 mi ENE 4.6 mph - N/A   Overcast
10:56 PM 15.8 °F 8.6 °F 10.4 °F 79% 29.62 in 5.0 mi North 4.6 mph - N/A   Overcast
11:16 PM 14.0 °F 5.1 °F 10.4 °F 86% 29.62 in 4.0 mi North 5.8 mph - N/A   Overcast
11:36 PM 12.2 °F 1.7 °F 10.4 °F 92% 29.62 in 10.0 mi North 6.9 mph - N/A   Overcast
11:56 PM 12.2 °F 0.7 °F 10.4 °F 92% 29.62 in 5.0 mi NNW 8.1 mph - N/A   Overcast